FW1555 Weather Reports


time (UTC)temp
C
wind
direction
speed
KPH
gust
KPH
rain 1hr
cm
rain 24hr
cm
rain mn
cm
humidity
%
barometer
mb
20260901021600 21 0 0.0 0.0 0.00 0.00 0.00 90 1018.1
20260901020057 21 0 0.0 0.0 0.00 0.00 0.00 89 1018.0
20260901014554 21 0 0.0 0.0 0.00 0.08 0.00 89 1018.1
20260901013055 21 0 0.0 0.0 0.00 0.08 0.00 89 1018.2
20260901011609 21 0 0.0 0.0 0.00 0.08 0.00 89 1018.1
20260901010113 21 0 0.0 0.0 0.00 0.08 0.00 89 1018.1
20260901004558 21 0 0.0 0.0 0.00 0.15 0.00 89 1018.0
20260901003052 21 0 0.0 0.0 0.00 0.15 0.00 89 1017.9
20260901001548 21 0 0.0 0.0 0.00 0.15 0.00 89 1017.9
20260831234558 22 0 0.0 0.0 0.00 0.15 0.00 88 1017.9
20260831233052 22 0 0.0 0.0 0.00 0.15 0.00 87 1018.0
20260831231549 22 0 0.0 0.0 0.00 0.15 0.00 84 1018.1
20260831224557 23 0 0.0 0.0 0.00 0.15 0.00 83 1018.3
20260831223057 23 0 0.0 1.6 0.00 0.15 0.00 82 1018.2
20260831221608 23 0 0.0 0.0 0.00 0.15 0.00 83 1018.3
20260831220105 23 254 0.0 1.6 0.00 0.15 0.00 82 1018.4
20260831214559 23 0 0.0 12.9 0.00 0.15 0.00 81 1018.4
20260831213050 23 0 3.2 11.3 0.00 0.15 0.00 81 1018.3
20260831211557 23 0 0.0 6.4 0.00 0.15 0.00 81 1018.4
20260831210053 23 263 0.0 16.1 0.00 0.15 0.00 81 1018.5
20260831204550 23 0 1.6 12.9 0.00 0.15 0.00 80 1018.6
20260831203106 24 0 1.6 6.4 0.00 0.15 0.00 76 1018.4
20260831201554 24 0 0.0 0.0 0.00 0.15 0.00 76 1018.4
20260831200053 24 0 0.0 1.6 0.00 0.15 0.00 76 1018.6
20260831194604 25 0 0.0 0.0 0.00 0.15 0.00 76 1018.7
20260831193053 25 0 0.0 3.2 0.00 0.15 0.00 72 1018.8
20260831191548 25 0 0.0 4.8 0.00 0.15 0.00 70 1018.9
20260831190109 25 0 0.0 6.4 0.00 0.15 0.00 71 1019.2
20260831184556 25 0 0.0 4.8 0.00 0.15 0.00 71 1019.3
20260831183108 25 0 0.0 1.6 0.00 0.15 0.00 69 1019.4
20260831181602 26 202 0.0 3.2 0.00 0.15 0.00 71 1019.5
20260831174554 26 0 0.0 6.4 0.00 0.15 0.00 70 1019.8
20260831173056 26 0 0.0 3.2 0.00 0.15 0.00 68 1019.8
20260831171558 26 51 0.0 4.8 0.00 0.15 0.00 67 1019.7
20260831170058 25 0 0.0 6.4 0.00 0.15 0.00 68 1019.9
20260831164552 26 0 0.0 4.8 0.00 0.15 0.00 67 1020.0
20260831163049 26 44 0.0 8.0 0.00 0.15 0.00 69 1019.9
20260831161600 25 0 0.0 3.2 0.00 0.15 0.00 70 1020.1
20260831160106 25 0 0.0 4.8 0.00 0.15 0.00 72 1020.1
20260831154622 25 0 0.0 6.4 0.00 0.15 0.00 72 1020.1
20260831153050 25 0 0.0 3.2 0.00 0.15 0.00 74 1020.2
20260831151602 24 0 0.0 6.4 0.00 0.15 0.00 77 1020.2
20260831150109 23 0 0.0 1.6 0.00 0.15 0.00 80 1020.1
20260831144600 23 0 0.0 4.8 0.00 0.15 0.00 80 1020.4
20260831143049 23 0 0.0 3.2 0.00 0.15 0.00 81 1020.5
20260831141602 22 0 0.0 1.6 0.00 0.15 0.00 81 1020.4
20260831140059 22 0 0.0 0.0 0.00 0.15 0.00 83 1020.3
20260831134553 22 0 0.0 6.4 0.00 0.15 0.00 86 1020.2
20260831133050 21 0 0.0 0.0 0.00 0.15 0.00 87 1020.2
20260831131554 21 0 0.0 0.0 0.00 0.15 0.00 89 1020.2
20260831130059 20 0 0.0 0.0 0.00 0.15 0.00 92 1020.1
20260831124553 20 0 0.0 0.0 0.00 0.15 0.00 94 1020.2
20260831123054 20 0 0.0 0.0 0.00 0.15 0.00 94 1020.3
20260831121600 19 0 0.0 0.0 0.00 0.15 0.00 95 1020.2
20260831120058 18 0 0.0 0.0 0.00 0.15 0.00 96 1020.1
20260831114554 18 0 0.0 0.0 0.00 0.15 0.00 97 1020.0
20260831113107 18 0 0.0 0.0 0.00 0.15 0.00 97 1019.8
20260831111611 18 0 0.0 0.0 0.00 0.15 0.00 97 1019.7
20260831110104 18 0 0.0 0.0 0.00 0.15 0.00 97 1019.7
20260831104605 18 0 0.0 0.0 0.00 0.15 0.00 97 1019.5
20260831103054 18 0 0.0 0.0 0.00 0.15 0.00 97 1019.5
20260831101559 18 0 0.0 0.0 0.00 0.15 0.00 97 1019.3
20260831100051 18 0 0.0 0.0 0.00 0.15 0.00 97 1019.1
20260831094605 18 0 0.0 0.0 0.00 0.15 0.00 96 1019.1
20260831093101 18 0 0.0 0.0 0.00 0.15 0.00 96 1019.1
20260831091603 18 0 0.0 0.0 0.00 0.15 0.00 96 1018.9
20260831090051 18 0 0.0 0.0 0.00 0.15 0.00 96 1018.9
20260831084554 19 0 0.0 0.0 0.00 0.15 0.00 96 1018.7
20260831083101 19 0 0.0 0.0 0.00 0.15 0.00 95 1018.9
20260831081601 19 0 0.0 0.0 0.00 0.15 0.00 96 1018.6
20260831080132 19 0 0.0 0.0 0.00 0.15 0.00 96 1018.7
20260831074606 19 0 0.0 0.0 0.00 0.15 0.00 97 1018.7
20260831073117 19 0 0.0 0.0 0.00 0.15 0.00 97 1018.7
20260831071556 19 0 0.0 0.0 0.00 0.15 0.00 97 1018.8
20260831070052 19 0 0.0 0.0 0.00 0.15 0.00 97 1018.8
20260831064556 19 0 0.0 0.0 0.00 0.15 0.00 97 1018.9
20260831063052 19 0 0.0 0.0 0.00 0.15 0.00 97 1018.7
20260831061602 19 0 0.0 3.2 0.00 0.15 0.00 98 1018.6
20260831060054 19 0 0.0 0.0 0.00 0.15 0.00 98 1018.7
20260831054600 20 0 0.0 0.0 0.00 0.15 0.00 99 1018.6
20260831053056 20 0 0.0 0.0 0.00 0.15 0.00 99 1018.6
20260831051602 20 0 0.0 0.0 0.00 0.15 0.00 99 1018.6
20260831044558 20 0 0.0 0.0 0.00 0.15 0.00 98 1018.7
20260831043103 20 0 0.0 0.0 0.00 0.15 0.00 98 1018.6
20260831041559 20 0 0.0 0.0 0.00 0.15 0.00 98 1018.4
20260831034609 21 0 0.0 0.0 0.00 0.15 0.15 98 1018.4
20260831033051 21 0 0.0 0.0 0.00 0.15 0.15 98 1018.4
20260831031558 21 0 0.0 0.0 0.00 0.15 0.15 98 1018.5
20260831030100 21 0 0.0 0.0 0.00 0.15 0.15 99 1018.9
20260831024608 22 0 0.0 0.0 0.00 0.15 0.15 98 1018.8
20260831023107 22 0 0.0 0.0 0.00 0.15 0.15 98 1018.8